Location: Copper Breaks State Park
(34.1132°N, 99.7492°W)
Time: 00:14:07
(UTC-06:00)

SL-16 R/B - Visible Passes

Search period start: 21 December 2014 00:00
Search period end: 31 December 2014 00:00
Orbit: 985 x 1007 km, 99.2° (Epoch: 20 December)

Date Brightness Start Highest point End Pass type
(mag) Time Alt. Az. Time Alt. Az. Time Alt. Az.
21 Dec 4.6 05:11:00 10° SSW 05:11:35 13° SSW 05:11:35 13° SSW visible
21 Dec 3.8 17:58:50 10° N 18:04:33 41° WNW 18:10:13 10° SW visible
22 Dec 4.7 18:30:29 10° NNW 18:35:08 23° WNW 18:39:45 10° WSW visible
23 Dec 4.9 04:28:32 10° SSE 04:28:56 12° SSE 04:28:56 12° SSE visible
23 Dec 5.1 19:03:15 10° NW 19:05:33 12° WNW 19:07:51 10° W visible
24 Dec 4.7 04:59:43 10° S 05:00:09 12° S 05:00:09 12° S visible
25 Dec 4.4 18:19:08 10° N 18:24:13 28° WNW 18:29:18 10° WSW visible
26 Dec 5.0 18:51:19 10° NNW 18:54:42 15° WNW 18:58:04 10° W visible
27 Dec 4.8 04:48:31 10° S 04:48:44 11° S 04:48:44 11° S visible
28 Dec 4.1 18:07:51 10° N 18:13:17 34° WNW 18:18:43 10° SW visible
29 Dec 4.9 18:39:43 10° NNW 18:43:50 19° WNW 18:47:56 10° WSW visible
